Location: Sungai Bunut
(2.6333°N, 113.7333°E)
Time: 20:42:51
(UTC+00:00)

Vanguard 3 - Pass Details

Date: 11 December 2023
Orbit: 508 x 3239 km, 33.4° (Epoch: 24 February)

Event Time Altitude Azimuth Distance (km) Brightness Sun altitude
Rises 09:06:33 0° 237° (WSW) 6,564 13.6 15.3°
Reaches altitude 10° 09:10:32 10° 238° (WSW) 5,776 14.1 14.4°
Maximum altitude 09:29:53 79° 323° (NW) 3,257 10.4 10.0°
Drops below altitude 10° 09:47:42 10° 49° (NE) 5,372 10.7 6.0°
Sets 09:51:16 0° 51° (NE) 6,107 11.0 5.1°
